Location: Unspecified
(48.5539°N, 71.6350°W)
Time: 05:14:58
(UTC-05:00)

ISS - Pass Details

Date: 30 January 2019
Orbit: 403 x 411 km, 51.6° (Epoch: 18 February)

Event Time Altitude Azimuth Distance (km) Brightness Sun altitude
Rises 19:13:33 0° 284° (WNW) 2,339 1.3 -25.2°
Reaches altitude 10° 19:15:41 10° 290° (WNW) 1,479 -0.1 -25.5°
Enters shadow 19:17:16 25° 302° (WNW) 881 -1.6 -25.8°
Maximum altitude 19:18:55 51° 8° (N) 528 - -26.0°
Drops below altitude 10° 19:22:10 10° 86° (E) 1,481 - -26.6°
Sets 19:24:18 0° 91° (E) 2,343 - -26.9°
